This is the latest recevied weather packets stored in our database for station/object K5OLV. If no packets are shown the sender has not sent any weather packets the latest 10 day(s).
| Time | Temp. | Humidity | Pressure | Rain* | Wind** | Luminosity | Snow |
|---|---|---|---|---|---|---|---|
| 1777946430 | 16.67° C | 59% | 1011.6 hPa | 0 mm | - | 0 W/m² | - |
| 1777946127 | 16.67° C | 58% | 1011.5 hPa | 0 mm | - | 0 W/m² | - |
| 1777945824 | 16.67° C | 56% | 1011.4 hPa | 0 mm | - | 0 W/m² | - |
| 1777945521 | 16.67° C | 58% | 1011.4 hPa | 0 mm | - | 0 W/m² | - |
| 1777945218 | 16.67° C | 59% | 1011.5 hPa | 0 mm | - | 0 W/m² | - |
| 1777944915 | 17.22° C | 55% | 1011.2 hPa | 0 mm | - | 0 W/m² | - |
| 1777944612 | 17.22° C | 57% | 1011.6 hPa | 0 mm | - | 0 W/m² | - |
| 1777944310 | 17.22° C | 56% | 1011.3 hPa | 0 mm | - | 0 W/m² | - |
| 1777944007 | 17.78° C | 56% | 1011 hPa | 0 mm | - | 0 W/m² | - |
| 1777943702 | 17.78° C | 56% | 1011.3 hPa | 0 mm | - | 0 W/m² | - |
| 1777943400 | 17.78° C | 58% | 1011.3 hPa | 0 mm | - | 0 W/m² | - |
| 1777943095 | 17.78° C | 54% | 1011.1 hPa | 0 mm | - | 0 W/m² | - |
| 1777942792 | 17.78° C | 53% | 1011 hPa | 0 mm | - | 0 W/m² | - |
| 1777942488 | 17.78° C | 56% | 1011.1 hPa | 0 mm | - | 0 W/m² | - |
| 1777942186 | 18.33° C | 52% | 1011 hPa | 0 mm | - | 0 W/m² | - |
| 1777941883 | 17.78° C | 53% | 1011 hPa | 0 mm | - | 0 W/m² | - |
| 1777941580 | 18.33° C | 54% | 1010.9 hPa | 0 mm | - | 0 W/m² | - |
| 1777941277 | 18.33° C | 56% | 1010.9 hPa | 0 mm | - | 0 W/m² | - |
| 1777940973 | 18.89° C | 51% | 1010.8 hPa | 0 mm | - | 1 W/m² | - |
| 1777940669 | 19.44° C | 54% | 1010.9 hPa | 0 mm | - | 3 W/m² | - |
| 1777940368 | 18.89° C | 54% | 1010.9 hPa | 0 mm | - | 6 W/m² | - |
| 1777940065 | 19.44° C | 55% | 1010.9 hPa | 0 mm | - | 9 W/m² | - |
| 1777939762 | 19.44° C | 55% | 1010.9 hPa | 0 mm | - | 11 W/m² | - |
| 1777939460 | 19.44° C | 56% | 1010.7 hPa | 0 mm | - | 14 W/m² | - |
| 1777939156 | 20° C | 53% | 1011 hPa | 0 mm | - | 16 W/m² | - |
* Rain latest hour (hover to see other rain measurements)
** Current wind speed in m/s (hover to see current wind gust speed)